CAPE
0 0 0 0 1 3 1 2 1 1 1 1 1 1 1 1 1 0 0 0 0 0 0 0 0 0 0 0 0 106 196 315 462 455 82 48 330 201 147 43 23 0 2 3 9 6 10 0 52 104 701 372 242 170
0 0 0 0 0 1 1 1 1 1 1 0 1 1 1 1 1 1 0 0 0 0 0 0 0 0 0 0 0 0 69 34 266 382 318 296 97 0 115 112 0 6 0 0 0 0 0 0 25 103 29 3 16 112
0 0 0 0 0 1 0 0 0 1 0 1 1 1 1 1 1 3 0 0 0 0 0 0 0 0 0 0 0 0 0 98 21 224 51 22 8 0 0 0 0 2 0 0 0 0 0 0 0 16 42 70 33 45
0 0 0 0 0 1 0 1 1 1 1 1 0 0 1 1 2 3 2 0 0 0 0 0 0 0 0 0 0 0 0 1 0 0 0 0 0 0 0 0 0 1 0 0 0 0 0 3 55 100 123 33 0 21
0 0 0 0 0 1 2 0 2 1 0 0 0 0 2 2 1 1 0 0 0 0 0 0 0 0 0 0 0 0 0 0 0 0 18 88 0 4 0 0 0 0 0 0 0 0 0 1 0 31 0 0 0 0
0 0 0 0 0 0 2 0 1 0 0 1 0 0 1 1 1 0 0 0 0 0 0 0 0 0 0 0 0 0 0 0 0 0 0 14 120 74 80 8 125 27 2 0 0 58 0 0 0 0 0 0 0 0
0 0 0 0 0 0 1 0 1 0 0 0 0 0 1 2 1 0 0 0 0 0 0 0 0 0 0 0 0 0 0 0 0 0 0 0 9 124 44 61 111 114 51 2 0 9 1 0 0 0 5 0 7 7
0 0 0 0 0 0 0 1 1 0 0 1 0 0 0 0 0 0 0 0 0 0 0 0 0 0 1 5 14 15 0 0 0 0 0 0 0 44 75 72 44 60 72 9 14 15 0 0 0 0 0 26 31 2
0 0 0 0 0 0 0 0 0 0 0 0 0 0 0 0 0 0 0 0 0 0 0 0 0 0 0 0 2 1 18 16 13 0 0 0 0 5 79 149 42 10 11 0 21 33 0 0 8 3 0 0 0 0
0 0 0 0 0 0 0 0 0 0 0 0 0 0 0 0 0 0 0 0 0 0 0 0 0 0 0 0 8 0 16 25 48 24 0 0 0 0 0 42 46 10 0 2 135 135 12 0 0 0 0 2 0 0
0 0 0 0 0 0 0 0 0 0 0 0 0 0 0 0 0 0 8 1 1 0 1 2 10 2 9 42 19 31 0 0 0 0 1 3 43 10 90 121 29 2 58 282 177 19 0 0 0 0 0 0 0 0
0 0 0 0 0 0 0 0 0 0 0 1 1 0 0 0 4 8 9 22 43 44 36 56 35 72 109 212 54 0 0 0 0 0 0 0 0 144 190 147 0 0 36 389 280 100 0 0 0 0 0 0 0 0
0 0 0 0 0 0 0 0 0 0 1 0 0 0 0 0 0 3 18 26 16 1 34 10 8 0 123 59 25 13 1 0 5 0 0 0 79 377 133 0 0 0 184 427 253 25 0 0 0 0 0 0 0 0
0 0 0 0 0 0 0 0 0 0 0 0 1 2 0 0 9 11 13 12 42 87 85 59 9 7 52 27 19 13 18 0 0 0 0 6 7 0 62 14 16 298 212 121 0 0 0 0 0 0 5 0 0 0
0 0 0 0 0 0 0 0 0 0 0 2 20 18 14 30 24 40 49 59 52 8 16 39 56 33 12 0 4 3 0 1 0 20 0 0 23 168 240 267 167 35 0 0 0 0 3 6 9 18 15 0 0 0
0 0 0 0 0 0 0 0 0 0 1 12 25 22 17 21 22 45 26 25 53 7 8 1 3 0 0 9 2 4 10 1 4 0 0 3 94 35 22 0 0 0 0 0 7 20 16 19 18 19 25 20 19 11
0 0 0 0 0 0 0 0 2 25 69 52 38 81 37 31 12 2 19 0 0 0 2 9 1 0 0 7 0 18 10 7 5 12 3 0 30 33 2 50 43 45 34 34 51 54 52 67 28 16 13 44 30 24
0 0 0 0 1 0 0 0 7 30 24 51 27 44 35 28 5 0 0 0 0 0 12 19 13 6 6 9 12 2 2 0 0 0 0 0 0 25 36 124 124 135 134 66 27 25 38 42 16 5 13 22 49 38
0 0 0 0 2 0 0 7 28 24 3 49 21 6 0 3 0 0 0 0 21 0 14 8 0 0 1 14 18 25 16 10 0 0 0 9 38 123 95 184 121 73 61 24 33 45 23 10 6 36 10 8 36 49
0 0 0 0 0 0 0 0 0 4 1 10 0 0 0 0 1 0 0 0 5 15 15 20 19 6 2 1 0 5 20 43 0 0 1 27 77 53 46 15 36 33 14 72 49 28 5 27 14 3 17 0 12 31
0 0 0 0 0 0 0 4 0 0 4 29 9 0 2 3 0 0 0 0 0 0 4 5 0 0 1 12 27 31 17 0 0 1 4 8 5 0 21 24 34 57 31 13 10 20 16 11 9 2 6 4 1 10
0 0 0 0 0 0 3 16 5 11 26 24 5 15 9 0 0 0 0 0 0 4 1 2 0 4 3 3 21 3 6 8 16 4 5 10 31 32 35 64 31 35 57 18 11 18 23 6 10 19 7 20 21 20
0 0 0 0 0 0 0 2 8 21 25 17 34 11 23 7 11 0 1 0 0 4 3 6 3 4 4 7 28 37 30 19 28 19 40 39 21 32 63 72 49 35 23 39 42 35 16 21 35 41 43 50 32 4
0 0 0 0 0 0 0 8 7 12 15 22 23 16 11 17 9 21 8 1 0 3 9 9 18 23 3 12 3 14 18 29 52 43 37 31 30 30 40 40 34 33 41 24 43 33 15 23 16 21 23 2 24 10
0 0 0 0 0 0 0 1 8 24 46 50 64 24 29 60 22 4 0 0 0 0 0 0 0 1 11 25 26 21 41 87 85 41 33 13 14 15 24 27 8 3 9 34 32 34 50 48 39 49 44 11 10 14
0 0 0 2 0 2 11 11 44 43 31 89 69 7 11 35 13 1 0 2 0 0 0 1 1 3 24 42 46 36 38 44 48 40 63 74 31 24 11 1 0 0 0 0 0 0 0 10 13 21 29 44 8 0
0 0 2 6 10 29 38 58 99 83 44 16 0 0 0 3 6 2 0 39 18 6 8 25 57 46 43 61 63 48 31 18 12 24 34 57 26 5 0 0 0 0 0 0 0 0 0 0 0 0 0 0 0 0
0 0 0 16 23 25 30 56 19 27 15 9 0 0 0 9 0 22 22 55 51 2 1 22 51 53 37 25 44 37 47 58 26 22 18 8 8 2 1 0 0 0 0 0 0 0 0 0 0 0 0 0 0 0
0 0 0 16 34 31 26 17 17 17 37 66 2 1 9 26 82 60 95 145 96 53 34 19 11 13 8 15 22 16 5 42 56 19 2 6 9 8 13 1 0 0 0 0 0 0 0 0 0 0 0 0 0 1
0 6 23 19 18 14 38 21 23 51 74 77 12 14 2 36 129 190 155 231 73 7 0 1 8 11 5 17 18 0 0 0 0 0 1 0 0 0 0 0 0 0 0 0 0 0 0 0 0 0 0 0 0 0
5 1 3 28 17 11 19 1 56 88 165 23 34 8 0 0 121 177 159 81 8 1 0 0 0 29 37 17 9 0 0 0 0 0 0 0 0 0 0 0 0 0 0 0 0 0 0 0 0 0 1 9 18 18
0 3 18 36 74 60 17 32 42 147 78 18 0 4 0 0 9 1 60 2 9 0 0 0 15 35 1 2 0 3 1 0 0 0 0 0 0 0 0 0 0 0 0 0 0 0 0 0 0 0 0 0 1 1
50 43 62 94 122 100 93 83 86 157 50 5 78 56 53 17 0 96 82 1 1 0 8 60 70 5 0 16 17 39 0 0 0 0 0 0 0 0 0 0 0 0 0 0 0 0 0 0 0 0 0 0 0 0
CIN
0 0 0 0 0 0 0 -1 0 0 -1 0 0 0 0 0 0 0 0 0 0 0 0 0 0 0 0 0 0 -208 -150 -169 -77 -29 -56 -74 -57 -116 -118 -181 -133 0 -38 -66 -74 -105 -143 0 -257 -75 -127 -224 -239 -248
0 0 0 0 0 0 0 0 0 0 0 0 0 0 0 0 0 0 0 0 0 0 0 0 0 0 0 0 0 0 -162 -162 -151 -109 -132 -159 -131 -4 -95 -38 -247 -99 0 0 0 -19 0 0 -298 -321 -392 -30 -72 -171
0 0 0 0 0 0 0 0 0 0 0 0 0 0 0 0 0 -1 0 0 0 0 0 0 0 0 0 0 0 0 -68 -117 -169 -200 -283 -266 -169 0 -36 0 0 -125 0 0 0 0 0 0 -48 -345 -335 -338 -361 -345
0 0 0 0 0 0 0 0 0 0 0 0 0 0 0 0 0 0 0 0 0 0 0 0 0 0 0 0 0 0 0 -77 0 0 0 0 0 0 0 0 0 -111 0 0 0 0 0 -104 -243 -302 -346 -420 0 -426
0 0 0 0 0 0 0 0 0 0 0 0 0 0 0 0 0 0 0 0 0 0 0 0 0 0 0 0 0 0 0 0 0 -8 -42 -100 -281 -215 0 0 0 0 0 0 0 0 0 -57 0 -289 0 0 0 0
0 0 0 0 0 0 0 0 0 0 0 0 0 0 0 0 0 0 0 0 0 0 0 0 0 0 0 0 0 0 0 0 0 0 0 -98 -96 -78 -59 -87 -88 -195 -320 0 0 -215 -4 0 0 -11 0 0 0 0
0 0 0 0 0 0 0 0 0 0 0 0 0 0 0 0 0 0 0 0 0 0 0 0 0 0 0 0 0 0 0 0 0 0 0 0 -34 -49 -50 -29 -46 -91 -124 -28 -5 -59 -58 0 0 0 -126 0 -245 -136
0 0 0 0 0 0 0 0 0 0 0 0 0 0 0 0 0 0 0 0 0 0 0 0 0 0 -24 -106 -48 -81 0 0 0 0 0 0 0 -42 -57 -56 -63 -69 -121 -181 -252 -216 0 0 0 0 0 -138 -141 -161
0 0 0 0 0 0 0 0 0 0 0 0 0 0 0 0 0 0 0 0 0 0 0 -5 0 0 0 0 -157 -46 -135 -29 -98 0 0 0 0 -6 -34 -28 -62 -100 -132 0 -169 -146 0 0 -60 -134 0 0 0 0
0 0 0 0 0 0 0 0 0 0 0 0 0 0 0 0 0 0 0 0 0 0 0 0 0 0 0 0 -81 0 -30 -128 -48 -68 -4 -1 0 0 0 -56 -106 -194 -6 -45 -141 -145 -217 0 0 0 0 -141 0 -3
0 0 0 0 0 0 0 0 0 0 0 0 0 0 0 0 0 0 -12 -4 -2 0 -19 -73 -51 -9 -10 -11 -19 -90 0 0 0 0 -12 -15 -50 -9 -66 -59 -176 -155 -178 -149 -93 -153 0 0 0 0 0 0 0 0
0 0 0 0 0 0 0 0 0 0 0 0 0 0 0 0 -22 -18 -21 -18 -11 -5 -17 -11 -11 -22 -23 -48 -36 0 0 0 0 0 0 0 0 -63 -93 -101 0 0 -206 -116 -82 -102 -31 0 0 0 0 0 0 0
0 0 0 0 0 0 0 0 0 0 0 0 0 0 0 0 -2 -10 -4 -7 -8 -6 -30 -27 -28 0 -28 -63 -63 -62 -47 0 -63 0 0 0 -103 -85 -156 -7 0 0 -143 -72 -76 -82 0 0 0 0 0 0 0 0
0 0 0 0 0 0 0 0 0 0 0 0 -14 -16 0 0 -14 -15 -13 -18 -14 -22 -30 -24 -18 -17 -31 -27 -61 -28 -62 0 0 0 0 -108 -182 0 -176 -217 -188 -103 -98 -94 0 0 0 0 0 -6 -130 -8 0 0
0 0 0 0 0 0 0 0 0 0 0 -3 -27 -17 -15 -9 -12 -12 -13 -14 -43 -81 -58 -21 -21 -42 -34 0 -25 -17 0 -9 0 -15 0 0 -219 -142 -106 -108 -101 -154 0 0 0 0 -66 -100 -91 -92 -83 0 0 0
0 0 0 0 0 0 0 0 0 0 -77 -38 -30 -13 -10 -18 -24 -24 -18 -19 -52 -79 -42 -19 -11 0 0 -24 -4 -8 -14 -2 -8 -5 0 -116 -101 -81 -49 -12 0 0 0 0 -66 -60 -79 -79 -71 -62 -54 -21 -15 -20
0 0 0 0 0 0 0 0 -159 -59 -36 -21 -12 -11 -13 -17 -20 -31 -30 -2 0 -3 -16 -14 -3 0 0 -19 0 -13 -18 -41 -63 -70 -56 -11 -121 -44 -24 -10 -35 -54 -37 -32 -31 -28 -18 -22 -28 -19 -9 -18 -16 -27
0 0 0 0 0 0 0 0 -32 -13 -9 -24 -7 -24 -24 -34 -19 0 0 -4 0 0 -3 -6 -19 -10 -14 -8 -8 -29 -37 0 0 0 0 -6 0 -98 -71 -20 -30 -33 -49 -36 -36 -28 -26 -21 -17 -21 -21 -24 -18 -26
0 0 0 0 0 0 0 -16 -23 -7 -34 -17 -25 -31 0 -11 -23 0 0 0 -26 -1 -8 -15 -4 0 -5 -20 -38 -46 -37 -61 0 0 0 -40 -44 -18 -29 -17 -32 -54 -48 -53 -43 -36 -29 -33 -32 -22 -26 -26 -15 -30
0 0 0 0 0 0 0 0 0 -27 -35 -25 0 0 0 0 -13 -6 -2 0 -27 -14 -6 -4 -3 -15 -7 -12 -20 -70 -44 -33 0 0 -12 -69 -45 -39 -33 -31 -47 -54 -51 -41 -34 -32 -45 -33 -33 -28 -29 -1 -19 -22
0 0 0 0 0 0 0 -73 0 -1 -31 -33 -59 0 -36 -55 0 0 0 0 0 0 -3 -13 -1 0 -1 -26 -27 -28 -26 0 0 -25 -23 -17 -49 -16 -62 -69 -23 -47 -51 -38 -34 -40 -32 -19 -40 -52 -30 -35 -9 -38
0 0 0 0 0 0 -14 -94 -68 -66 -71 -76 -72 -60 -32 0 0 0 0 0 0 -2 -7 0 -1 -6 -9 -38 -13 -50 -30 -10 -15 -20 -23 -36 -13 -17 -30 -34 -50 -30 -33 -42 -36 -32 -31 -38 -44 -31 -38 -37 -41 -47
0 0 0 0 0 0 -12 -44 -27 -41 -28 -10 -34 -15 -21 -36 -49 0 -11 0 0 -9 -11 -2 0 -15 -22 -27 -33 -25 -29 -19 -28 -33 -43 -46 -57 -60 -41 -27 -24 -29 -31 -31 -38 -32 -26 -43 -45 -37 -41 -41 -41 -23
0 0 0 0 0 -8 0 -8 -12 -14 -9 -8 -12 -12 -13 -22 -86 -25 -6 -3 -3 -21 -8 -12 -28 -19 -13 -55 -71 -45 -53 -74 -51 -57 -53 -45 -26 -29 -40 -34 -30 -31 -28 -45 -36 -31 -37 -37 -46 -32 -31 -8 -41 -27
0 0 0 0 0 0 0 -11 -13 -56 -36 -42 -18 -22 -21 -23 -13 -21 0 -1 0 0 0 -17 0 -45 -41 -50 -32 -31 -67 -62 -34 -21 -26 -39 -39 -35 -25 -25 -23 -32 -50 -23 -26 -25 -32 -38 -47 -32 -35 -32 -24 -24
0 0 0 -14 0 -9 -7 -7 -46 -53 -91 -39 -24 -19 -26 -13 -17 -10 0 -21 0 0 0 -46 -23 -76 -53 -65 -58 -42 -20 -23 -23 -19 -23 -31 -36 -39 -32 -11 0 0 0 0 0 0 0 -15 -10 -25 -29 -25 -12 0
0 0 -11 -57 -35 -63 -45 -35 -16 -33 -77 -34 0 0 0 -6 -7 -12 0 -30 -43 -22 -61 -74 -55 -54 -40 -40 -42 -39 -30 -34 -20 -20 -35 -13 -32 -10 0 0 0 0 0 0 0 0 0 0 0 0 0 0 0 0
0 0 0 -24 -17 -24 -13 -33 -13 -12 -9 -21 -13 0 -1 -11 -6 -25 -19 -26 -36 -44 -64 -70 -89 -102 -69 -41 -36 -36 -27 -22 -34 -39 -19 -23 -44 -53 -25 0 0 0 0 0 0 0 0 0 0 0 0 0 0 0
0 -3 -5 -26 -79 -73 -10 -10 -11 -20 -29 -18 -7 -2 -14 -16 -31 -29 -23 -30 -41 -38 -30 -37 -50 -42 -39 -33 -35 -54 -48 -25 -10 -17 -20 -27 -11 -16 -29 -45 0 0 0 0 0 0 0 0 0 0 0 0 -7 -34
0 -16 -56 -51 -65 -31 -34 -16 -26 -22 -9 -19 -28 -31 -27 -25 -34 -46 -36 -31 -38 -58 0 -33 -59 -26 -20 -19 -27 0 0 0 0 -3 -11 0 0 0 0 0 0 0 0 -3 0 0 0 0 0 0 0 0 0 0
-16 -6 -15 -37 -51 -71 -59 -12 -32 -31 -24 -38 -53 -63 0 0 -30 -52 -45 -59 -77 -41 0 0 -10 -49 -43 -34 -42 0 0 0 0 0 0 0 0 0 0 0 0 0 0 0 0 0 0 0 0 0 -39 -44 -26 -26
0 -11 -36 -33 -19 -39 -53 -31 -22 -10 -21 -47 -50 -90 0 -4 -45 -3 -69 -44 -44 -3 -5 0 -40 -51 -48 -58 -15 -71 -52 0 0 0 0 0 0 0 0 0 0 0 0 0 0 0 0 0 0 0 0 -6 -4 -6
-14 -17 -29 -19 -17 -21 -27 -19 -15 -9 -15 -28 -26 -30 -24 -22 -2 -28 -83 -13 -13 0 -51 -70 -68 -71 0 -36 -39 -44 0 0 0 0 0 0 0 0 0 0 0 0 0 0 0 0 0 0 0 0 0 0 0 0
Wind_Speed
22 24 26 28 30 31 33 34 33 33 33 31 30 28 28 27 28 26 4 8 12 5 16 17 22 24 27 25 27 27 27 23 23 22 24 24 24 25 27 23 23 24 23 22 23 25 29 25 22 20 14 16 18 21
24 26 29 31 33 35 35 33 32 30 29 29 30 29 26 26 26 25 12 19 25 4 9 16 24 25 27 29 28 24 22 23 23 22 20 17 22 21 22 24 20 26 22 22 22 22 20 24 22 20 19 23 24 20
25 28 32 34 36 35 34 33 32 31 30 30 31 29 23 22 22 20 16 23 20 20 21 3 7 11 14 23 23 23 22 18 17 18 19 20 22 19 21 23 22 22 21 23 25 25 28 29 26 24 26 28 29 28
30 33 36 36 36 35 35 34 32 30 29 29 29 30 19 21 21 17 12 11 20 19 20 19 20 26 11 4 16 22 15 16 14 17 19 21 24 19 26 24 24 24 22 26 30 32 29 30 29 30 31 27 29 28
35 36 36 35 35 35 34 34 34 34 33 33 33 33 26 25 24 15 7 7 3 15 19 30 31 20 22 10 9 17 13 23 21 21 21 21 16 13 20 22 26 21 23 26 28 23 26 25 28 27 27 27 28 30
32 36 36 35 37 39 39 38 37 36 35 33 31 30 24 25 24 19 17 15 7 8 18 21 22 21 25 22 6 5 10 8 17 19 20 18 16 12 16 20 19 19 22 16 24 16 19 26 22 24 24 24 25 21
35 39 39 39 39 40 38 34 30 28 30 35 30 30 25 21 17 13 15 14 11 16 17 21 18 16 22 16 9 8 7 8 13 22 29 32 27 21 21 20 13 21 17 20 19 20 24 23 24 25 20 12 15 17
34 38 41 41 42 41 41 39 37 38 39 37 24 24 19 16 15 16 14 4 9 15 17 16 15 19 21 17 15 18 14 12 15 16 21 24 25 24 26 18 8 5 14 19 19 17 19 15 16 13 9 4 6 8
36 40 41 40 43 44 43 40 40 41 40 31 29 20 17 16 16 17 19 12 11 14 16 15 17 17 20 18 18 21 21 18 22 19 19 20 24 24 22 13 9 9 9 11 6 10 8 11 10 8 8 10 5 7
37 41 43 44 45 44 42 40 41 43 40 28 20 20 19 17 17 16 16 14 14 13 13 15 15 19 21 20 20 18 19 18 21 20 25 20 28 34 27 17 10 4 2 2 3 4 5 9 12 8 10 6 8 9
38 40 40 42 42 42 37 36 38 41 29 25 23 19 19 18 17 14 15 14 12 14 11 12 14 19 17 19 19 17 19 18 20 24 23 22 21 19 11 7 6 3 2 2 1 3 6 13 13 12 10 9 11 11
36 37 39 41 42 39 34 33 36 30 26 23 20 19 17 16 15 15 14 13 12 15 16 19 21 20 20 18 18 18 19 20 23 22 23 25 21 15 7 1 4 1 5 4 5 4 8 6 7 7 7 9 11 12
37 38 38 41 40 35 33 34 34 28 26 18 16 16 15 15 15 15 15 15 16 19 19 22 23 23 21 20 18 18 18 21 19 24 25 24 23 19 7 3 4 2 1 3 3 5 6 5 6 7 7 9 11 12
38 39 39 40 33 32 32 36 33 25 19 17 15 16 13 15 14 16 16 22 20 22 24 21 22 22 21 21 19 20 20 19 24 25 23 24 28 29 22 5 3 2 2 7 8 7 6 5 5 6 7 9 11 12
38 40 38 30 31 31 34 33 26 18 16 15 14 14 13 16 16 15 19 18 22 23 24 23 21 20 21 21 19 19 20 21 21 23 25 29 28 21 22 13 6 7 8 9 8 7 6 7 7 8 9 11 12 13
39 34 25 28 31 31 28 23 14 12 16 15 15 16 19 20 21 18 25 27 25 26 24 22 21 20 21 19 19 20 21 21 22 23 24 24 21 20 23 21 8 9 7 5 5 7 8 9 9 8 8 9 11 13
32 19 22 22 14 9 9 14 15 14 16 15 14 18 20 20 16 19 16 19 23 22 21 20 19 18 19 18 19 20 23 26 26 25 24 22 20 16 17 19 3 4 5 6 8 8 8 8 7 9 10 9 10 13
20 17 10 7 8 12 15 15 14 14 15 14 12 14 15 16 19 23 20 21 18 16 12 12 18 20 18 19 19 20 22 25 26 26 24 19 18 11 10 5 4 7 8 7 7 7 8 7 7 8 9 9 8 10
10 7 3 4 10 15 16 15 13 13 13 9 12 6 7 10 17 23 24 21 13 13 13 12 13 19 22 20 21 23 22 23 25 26 24 21 16 15 4 8 10 9 4 2 4 6 6 7 8 9 10 10 9 9
6 3 5 8 16 18 16 16 15 16 13 11 7 4 9 11 12 19 22 20 12 13 14 15 15 17 19 22 23 25 25 24 24 22 18 16 14 11 7 7 7 7 3 8 6 6 8 9 9 11 11 13 12 11
7 14 13 17 15 15 17 17 16 14 11 11 16 14 9 19 19 19 18 11 17 12 14 16 18 20 21 21 21 22 20 18 18 17 15 14 11 10 8 5 14 6 9 6 7 8 9 8 12 12 13 13 11 12
11 8 12 14 15 15 14 14 14 14 13 10 16 17 18 15 18 18 20 22 19 15 11 11 16 15 14 13 12 10 10 11 10 7 6 5 5 6 10 12 11 6 9 8 8 9 10 10 12 12 13 13 13 13
9 12 13 14 16 16 13 14 13 14 14 14 12 18 19 19 18 20 21 19 15 14 16 12 10 13 9 9 12 12 11 8 6 11 11 12 14 11 8 8 9 9 9 10 9 11 11 10 11 12 12 12 13 13
12 14 16 16 16 16 14 15 14 14 13 18 14 15 15 17 18 21 24 21 19 17 14 19 8 29 22 12 11 9 11 12 12 11 9 8 11 8 8 8 8 10 11 11 10 12 13 13 13 13 14 15 12 14
14 14 15 14 14 15 16 17 17 15 12 8 16 19 20 17 17 20 21 21 20 23 25 22 18 18 13 10 6 5 8 7 5 8 3 3 7 6 8 9 9 9 12 13 13 14 14 14 13 12 12 14 17 19
13 14 14 15 14 15 15 17 17 19 19 19 20 20 21 19 17 18 19 19 20 21 19 17 14 12 11 14 9 4 10 11 7 7 10 6 11 12 12 13 12 12 14 16 16 16 15 15 16 10 9 8 14 15
12 13 13 12 13 13 13 13 13 18 21 21 18 17 18 17 15 15 16 12 19 17 19 17 14 14 12 10 8 6 7 12 15 12 10 8 8 15 16 14 13 14 14 17 16 17 16 17 18 17 16 14 14 14
10 12 12 14 14 14 15 16 19 20 18 17 17 17 16 16 14 12 12 15 17 22 13 10 9 16 17 19 15 12 13 14 14 12 12 13 14 15 18 18 17 16 16 16 18 19 18 20 20 19 19 19 20 21
10 11 12 13 14 14 15 16 17 17 18 17 17 15 12 14 13 11 10 12 10 12 15 10 11 10 11 9 12 14 13 14 15 14 15 14 13 15 16 18 17 12 13 15 17 21 22 23 23 22 23 21 21 20
10 10 12 13 13 14 15 16 17 18 18 17 16 16 17 16 14 14 13 10 8 10 10 12 12 11 20 14 12 11 15 18 17 17 16 17 17 17 18 20 22 22 17 14 21 22 25 26 27 27 27 26 21 19
11 11 11 12 14 14 14 16 17 19 20 21 18 16 19 17 13 11 13 12 11 10 11 11 8 13 13 10 10 13 14 14 18 17 17 17 18 19 19 21 22 23 22 22 24 25 26 28 28 28 28 28 24 19
10 10 11 13 13 14 14 13 15 18 18 22 23 20 19 15 13 14 14 15 14 14 10 12 12 15 13 16 12 13 15 16 18 19 19 19 19 19 20 21 22 23 24 25 26 28 29 27 26 27 27 27 26 23
9 9 10 12 13 13 12 15 15 16 17 18 18 18 17 15 13 11 11 12 15 17 19 17 17 18 8 17 14 14 16 18 18 18 19 21 21 20 20 21 22 24 24 25 27 28 27 27 28 27 26 25 24 24
Wind_Direction
310 312 313 315 317 321 326 336 341 336 330 320 313 306 330 340 333 335 70 118 30 102 234 213 210 210 242 256 253 265 272 271 273 268 261 265 269 270 269 275 269 271 270 269 269 268 268 292 290 295 299 302 310 319
310 313 316 320 324 329 331 321 317 308 304 306 311 331 345 344 343 343 23 339 320 25 204 238 234 220 213 217 267 279 278 274 271 273 272 275 273 278 269 264 276 268 274 274 281 285 291 295 295 299 299 295 300 311
310 315 320 324 326 323 318 315 310 307 303 307 320 339 357 360 356 356 356 335 339 336 252 147 130 203 185 202 196 272 275 285 287 277 277 277 276 279 274 274 276 280 282 281 287 290 293 294 300 298 297 294 298 298
316 323 326 326 323 321 319 316 310 304 300 298 299 331 6 0 355 358 2 6 337 339 333 324 320 257 283 100 177 188 254 283 292 299 290 280 279 283 275 282 280 281 287 287 291 293 298 296 298 298 295 296 298 298
328 327 323 319 317 316 314 312 310 310 310 318 316 323 350 350 349 1 9 19 127 349 336 288 274 283 288 341 161 178 191 263 276 282 288 284 298 298 286 295 274 282 285 291 294 303 296 306 304 304 302 297 302 296
3 323 320 318 321 326 326 320 316 316 317 306 296 339 354 349 350 359 355 9 87 42 349 333 318 296 276 290 320 143 167 246 271 277 281 289 300 295 298 297 287 279 285 310 300 325 311 299 312 302 302 308 308 297
353 338 325 324 322 327 320 307 299 292 293 307 345 344 351 356 5 10 3 3 21 340 348 333 335 338 313 307 313 304 296 296 282 277 269 268 276 287 291 291 292 286 300 302 313 316 311 315 313 302 297 308 316 305
355 348 330 327 326 323 321 319 318 318 314 331 352 350 360 10 14 5 3 74 7 343 340 340 335 323 332 322 305 304 295 293 291 285 282 275 278 281 278 291 289 277 301 307 313 324 317 335 340 344 345 351 344 341
349 340 327 319 325 330 331 332 333 328 333 336 344 359 12 14 10 4 351 7 357 342 340 336 324 320 323 324 312 303 301 281 294 286 285 281 275 277 284 288 290 280 297 320 342 346 2 354 14 16 346 309 13 343
343 336 336 336 338 340 337 337 335 329 315 347 7 358 356 5 10 4 359 360 358 353 342 333 329 312 310 312 309 297 304 279 278 286 288 284 276 268 278 289 291 264 295 33 37 71 49 49 76 24 38 42 17 8
340 341 343 344 344 344 346 347 345 338 351 350 349 350 352 0 2 11 357 356 3 351 6 356 344 322 318 305 299 302 297 304 291 281 292 288 288 295 298 284 272 239 294 131 56 77 102 111 99 82 70 25 11 4
343 344 345 344 343 344 346 349 347 350 350 347 345 349 357 2 1 355 355 359 358 350 340 332 320 325 312 311 304 302 295 288 284 287 300 286 287 292 312 192 163 240 136 130 108 116 116 102 95 61 24 17 6 0
341 342 343 342 342 343 345 344 342 342 342 353 357 353 357 358 352 352 349 348 342 334 329 322 311 317 313 313 308 298 293 280 293 282 283 273 288 288 272 221 276 294 4 120 104 93 92 79 65 58 30 7 0 359
341 342 342 341 342 343 342 339 337 340 343 342 347 345 353 351 351 354 347 326 329 321 313 310 314 315 311 306 301 294 292 292 276 275 278 294 299 267 262 253 171 184 139 112 113 109 96 73 38 22 34 21 9 359
344 343 344 350 351 349 346 342 340 340 334 332 347 355 7 3 2 359 341 341 323 315 310 302 309 321 316 304 300 297 290 283 280 279 288 297 291 295 266 252 196 146 123 115 110 102 86 75 62 52 42 13 10 2
346 351 6 2 356 355 357 2 27 19 323 318 327 338 342 342 336 345 322 316 313 306 302 308 316 315 308 306 295 284 280 278 278 284 287 301 301 307 275 246 158 132 128 121 102 90 86 86 76 48 47 38 29 28
354 11 8 5 3 350 53 83 99 138 171 206 213 334 325 335 255 265 15 358 331 323 319 311 302 301 302 310 292 290 278 263 267 279 291 304 311 341 303 257 201 126 124 107 101 86 79 92 57 35 27 51 48 40
8 7 349 312 26 61 85 108 129 141 137 146 173 272 271 268 321 11 16 9 7 354 350 329 301 284 293 290 287 296 291 283 281 283 290 301 302 316 44 248 244 111 98 93 80 63 66 64 39 26 29 8 33 28
347 345 283 249 76 84 95 123 138 137 151 189 131 229 212 114 42 22 15 11 27 33 10 18 315 280 267 280 285 285 288 286 279 279 265 265 281 281 358 101 98 84 48 355 50 47 33 12 19 14 6 9 18 11
262 142 113 108 84 73 90 97 115 128 135 151 168 100 133 97 68 39 37 49 9 337 247 274 277 275 281 278 276 270 274 271 278 285 284 286 285 294 315 300 335 52 339 313 338 26 19 3 351 350 4 352 356 10
119 80 80 79 93 99 100 108 94 94 111 136 64 96 127 70 67 64 71 119 108 214 212 250 262 268 273 273 274 265 287 288 280 285 276 272 284 283 291 341 237 39 69 17 16 355 338 345 340 355 358 10 17 13
116 163 115 109 111 111 117 117 107 104 113 126 76 73 63 80 74 78 74 76 87 107 140 196 249 254 262 267 259 296 304 297 301 308 322 275 357 284 229 235 243 25 36 29 0 3 356 359 358 2 8 2 0 357
181 109 108 100 83 87 106 101 104 103 102 88 94 64 55 61 72 69 72 81 101 104 96 139 203 177 207 207 189 190 202 210 347 179 209 228 227 225 29 23 40 30 2 343 4 3 352 359 2 8 3 8 7 5
112 91 71 66 69 69 84 74 73 71 75 47 68 71 76 69 73 61 56 79 102 113 126 125 68 104 137 157 162 183 198 206 227 259 271 20 17 349 353 1 341 329 343 350 358 0 2 7 21 18 17 7 23 12
69 84 74 78 75 63 58 50 53 67 74 81 47 24 18 60 68 63 70 81 109 117 124 142 154 131 146 177 227 270 273 249 309 9 285 321 15 8 5 2 358 342 349 6 15 15 23 15 17 40 30 13 0 344
70 73 76 72 70 65 59 47 41 29 29 34 29 14 339 324 1 12 70 113 130 134 138 141 157 168 173 150 176 311 345 359 326 300 226 318 17 17 18 17 357 346 360 9 21 7 1 359 8 52 54 50 11 32
75 68 78 86 72 62 62 64 60 44 27 26 33 33 346 298 330 347 29 29 134 154 150 137 164 192 197 215 236 223 325 7 16 13 19 11 319 31 21 9 2 1 360 2 3 5 2 357 352 356 8 15 15 16
87 51 66 50 58 57 52 55 46 43 47 50 46 55 318 335 322 313 19 54 83 126 165 190 198 157 145 94 23 338 347 4 12 3 1 355 358 21 12 28 23 17 9 14 10 5 3 358 357 356 356 357 356 358
85 69 58 56 54 61 61 53 51 51 50 55 63 78 122 296 255 271 339 298 311 44 51 291 317 294 335 336 332 329 308 6 18 5 349 338 359 347 332 340 22 66 45 18 3 356 352 352 352 352 351 352 351 349
80 81 65 45 47 49 60 55 55 54 53 66 70 77 104 205 243 224 248 298 316 16 10 337 316 340 60 20 275 248 5 21 19 23 19 12 358 355 3 4 358 356 13 11 349 346 343 345 344 345 345 348 348 352
69 66 62 59 47 48 63 61 61 53 48 42 56 93 109 91 241 288 16 23 42 336 24 39 105 348 354 211 297 12 359 342 10 11 12 10 6 8 4 1 6 12 16 11 3 358 350 345 344 347 349 347 352 357
86 71 58 49 48 43 59 68 63 53 56 44 51 86 106 221 287 300 71 62 67 66 13 39 33 287 282 226 270 339 25 347 346 351 2 2 0 2 1 5 7 8 4 2 2 359 356 358 359 357 356 356 359 1
84 75 64 43 37 40 43 45 58 62 64 73 93 98 97 79 16 22 12 61 91 107 136 194 120 103 84 205 231 282 56 39 39 34 26 21 19 18 14 14 17 17 14 14 11 9 8 5 4 4 6 8 10 10